User: anonymous
Location: Fremont
(37.5480°N, 121.9880°W)
Time: 05:23:33
(UTC-07:00)
Language:

Cosmos 1766 - Orbit

View from above orbital plane
View from above orbital plane
View from above satellite
View from above satellite

Ground track
Ground track

The orbit data is extracted from the following two-line orbital elements,

1 16881U 86055A   14109.15982492  .00008610  00000-0  60034-3 0  8421
2 16881 082.5107 070.2995 0014490 063.0598 297.2107 15.05195615507323
Epoch (UTC): 19 April 2014 03:50:08
Eccentricity: 0.0014490
inclination: 82.5107°
perigee height: 541 km
apogee height: 561 km
right ascension of ascending node: 70.2995°
argument of perigee: 63.0598°
revolutions per day: 15.05195615
mean anomaly at epoch: 297.2107°
orbit number at epoch: 50732

The dashed part of the orbit path shows where the satellite is in the earth's shadow,  

DLR